OpenBCM V1.07b12 (Linux)

Packet Radio Mailbox

DB0FHN

[JN59NK Nuernberg]

 Login: GUEST





  
I6KZR  > KEPLER   04.05.03 19:30l 1486 Lines 39743 Bytes #999 (0) @ WW
BID : 640_I6KZR
Read: DB0FHN GUEST
Subj: Old Istantrak Keplerians #116
Path: DB0FHN<DB0ZWI<DB0HOT<DB0MRW<DB0RGB<OK0PPL<RZ6HXA<SP7MGD<IK6PYS<I6ZLO<
      IK6WID
Sent: 030426/1712Z @:IK6WID.#AP.IMAR.ITA.EU #:37393 [MONTE URANO]  FBB7.00i
From: I6KZR@IK6WID.#AP.IMAR.ITA.EU
To  : KEPLER@WW






Inviato da: I6KZR@IK6WID.#AP.IMAR.ITA.EU        

Satellite: OSCAR 7
Catalog number: 07530
Epoch time:      103114.65421652
Element set:     165 
Inclination:      101.7499 deg
RA of node:       161.7987 deg
Eccentricity:    0.0012176
Arg of perigee:   313.3465 deg
Mean anomaly:      46.6589 deg
Mean motion:   12.53565273 rev/day
Decay rate:   -2.9000E-007 rev/day^2
Epoch rev:           30134
Checksum:              301

Satellite: GOES 2
Catalog number: 10061
Epoch time:      103110.05256413
Element set:     159 
Inclination:       14.1502 deg
RA of node:        12.9744 deg
Eccentricity:    0.0012144
Arg of perigee:   201.8149 deg
Mean anomaly:     158.0678 deg
Mean motion:    0.99401519 rev/day
Decay rate:   -3.3399E-006 rev/day^2
Epoch rev:            3943
Checksum:              267

Satellite: GOES 3
Catalog number: 10953
Epoch time:      103114.75008790
Element set:     0 
Inclination:       13.4396 deg
RA of node:        16.7379 deg
Eccentricity:    0.0006510
Arg of perigee:   354.2734 deg
Mean anomaly:       5.6993 deg
Mean motion:    1.00280356 rev/day
Decay rate:   -1.2100E-006 rev/day^2
Epoch rev:            4415
Checksum:              256

Satellite: GOES 6
Catalog number: 14050
Epoch time:      103114.84060561
Element set:     443 
Inclination:       10.4810 deg
RA of node:        35.1625 deg
Eccentricity:    0.0005434
Arg of perigee:   357.3181 deg
Mean anomaly:       2.5914 deg
Mean motion:    1.00319556 rev/day
Decay rate:   -2.9000E-007 rev/day^2
Epoch rev:           13129
Checksum:              348

Satellite: OSCAR 10
Catalog number: 14129
Epoch time:      103114.49337037
Element set:     930 
Inclination:       26.0941 deg
RA of node:       153.6865 deg
Eccentricity:    0.6001323
Arg of perigee:   346.5671 deg
Mean anomaly:       2.8093 deg
Mean motion:    2.05866623 rev/day
Decay rate:    1.6400E-006 rev/day^2
Epoch rev:           12140
Checksum:              268

Satellite: OSCAR 11 (UoSA
Catalog number: 14781
Epoch time:      103116.56195845
Element set:     131 
Inclination:       98.1277 deg
RA of node:        91.0581 deg
Eccentricity:    0.0009824
Arg of perigee:     4.1907 deg
Mean anomaly:     355.9386 deg
Mean motion:   14.78194891 rev/day
Decay rate:    1.3589E-005 rev/day^2
Epoch rev:            2613
Checksum:              329

Satellite: NOAA 10
Catalog number: 16969
Epoch time:      103116.50619252
Element set:     749 
Inclination:       98.7360 deg
RA of node:       110.5150 deg
Eccentricity:    0.0011512
Arg of perigee:   252.4412 deg
Mean anomaly:     107.5503 deg
Mean motion:   14.27091103 rev/day
Decay rate:    9.7999E-007 rev/day^2
Epoch rev:           86345
Checksum:              302

Satellite: GOES 7
Catalog number: 17561
Epoch time:      103115.42605284
Element set:     939 
Inclination:        7.7265 deg
RA of node:        55.1087 deg
Eccentricity:    0.0004100
Arg of perigee:   278.3673 deg
Mean anomaly:     212.3440 deg
Mean motion:    1.00275711 rev/day
Decay rate:    2.9000E-007 rev/day^2
Epoch rev:            4240
Checksum:              385

Satellite: COSMOS 1861
Catalog number: 18129
Epoch time:      103114.96585006
Element set:     233 
Inclination:       82.9201 deg
RA of node:        98.1841 deg
Eccentricity:    0.0013295
Arg of perigee:    49.3235 deg
Mean anomaly:     310.9070 deg
Mean motion:   13.72707679 rev/day
Decay rate:    5.1000E-007 rev/day^2
Epoch rev:           79348
Checksum:              313

Satellite: EUTELSAT 1-F4 
Catalog number: 18351
Epoch time:      103114.80467919
Element set:     57 
Inclination:        7.3292 deg
RA of node:        58.2607 deg
Eccentricity:    0.0005924
Arg of perigee:   200.1584 deg
Mean anomaly:     159.7603 deg
Mean motion:    0.98687044 rev/day
Decay rate:   -5.1000E-007 rev/day^2
Epoch rev:            4332
Checksum:              296

Satellite: NOAA 11
Catalog number: 19531
Epoch time:      103116.49597837
Element set:     585 
Inclination:       98.8913 deg
RA of node:       197.6238 deg
Eccentricity:    0.0011973
Arg of perigee:    16.8295 deg
Mean anomaly:     343.3274 deg
Mean motion:   14.14569060 rev/day
Decay rate:    1.3699E-006 rev/day^2
Epoch rev:           75226
Checksum:              354

Satellite: ASTRA 1A
Catalog number: 19688
Epoch time:      103113.70278637
Element set:     599 
Inclination:        1.5525 deg
RA of node:        93.4012 deg
Eccentricity:    0.0005020
Arg of perigee:   292.2898 deg
Mean anomaly:      83.8066 deg
Mean motion:    1.00271097 rev/day
Decay rate:    2.0999E-007 rev/day^2
Epoch rev:            3284
Checksum:              309

Satellite: OSCAR 14 (UOSA
Catalog number: 20437
Epoch time:      103115.77278914
Element set:     217 
Inclination:       98.2617 deg
RA of node:       156.1867 deg
Eccentricity:    0.0011398
Arg of perigee:     9.6679 deg
Mean anomaly:     350.4715 deg
Mean motion:   14.31259756 rev/day
Decay rate:    6.3999E-007 rev/day^2
Epoch rev:           69196
Checksum:              365

Satellite: OSCAR 15 (UOSA
Catalog number: 20438
Epoch time:      103116.54020664
Element set:     797 
Inclination:       98.2398 deg
RA of node:       145.7581 deg
Eccentricity:    0.0010725
Arg of perigee:    19.2164 deg
Mean anomaly:     340.9445 deg
Mean motion:   14.30215831 rev/day
Decay rate:    4.5999E-007 rev/day^2
Epoch rev:           69173
Checksum:              330

Satellite: OSCAR 16 (PACS
Catalog number: 20439
Epoch time:      103115.14765991
Element set:     883 
Inclination:       98.3039 deg
RA of node:       167.6508 deg
Eccentricity:    0.0011218
Arg of perigee:    19.3533 deg
Mean anomaly:     340.8073 deg
Mean motion:   14.31498562 rev/day
Decay rate:    1.4299E-006 rev/day^2
Epoch rev:           69191
Checksum:              331

Satellite: OSCAR 17 (DOVE
Catalog number: 20440
Epoch time:      103115.75272233
Element set:     743 
Inclination:       98.3232 deg
RA of node:       172.2763 deg
Eccentricity:    0.0011909
Arg of perigee:    14.2299 deg
Mean anomaly:     345.9215 deg
Mean motion:   14.31778531 rev/day
Decay rate:    9.5000E-007 rev/day^2
Epoch rev:           69207
Checksum:              297

Satellite: OSCAR 18 (WEBE
Catalog number: 20441
Epoch time:      103115.54407628
Element set:     66 
Inclination:       98.3206 deg
RA of node:       171.2455 deg
Eccentricity:    0.0012269
Arg of perigee:    17.3764 deg
Mean anomaly:     342.7839 deg
Mean motion:   14.31579334 rev/day
Decay rate:    1.1399E-006 rev/day^2
Epoch rev:           69202
Checksum:              311

Satellite: OSCAR 19 (LUSA
Catalog number: 20442
Epoch time:      103114.67632816
Element set:     3 
Inclination:       98.3367 deg
RA of node:       173.5564 deg
Eccentricity:    0.0012621
Arg of perigee:    18.3065 deg
Mean anomaly:     341.8563 deg
Mean motion:   14.31743335 rev/day
Decay rate:    1.2399E-006 rev/day^2
Epoch rev:           69195
Checksum:              307

Satellite: JAS 1B (FUJI 2
Catalog number: 20480
Epoch time:      103114.95368909
Element set:     493 
Inclination:       99.0552 deg
RA of node:        65.4445 deg
Eccentricity:    0.0539409
Arg of perigee:   215.7479 deg
Mean anomaly:     140.6354 deg
Mean motion:   12.83331366 rev/day
Decay rate:   -4.1000E-007 rev/day^2
Epoch rev:           61890
Checksum:              317

Satellite: HST
Catalog number: 20580
Epoch time:      103115.98843194
Element set:     405 
Inclination:       28.4682 deg
RA of node:       326.4857 deg
Eccentricity:    0.0003756
Arg of perigee:   249.8563 deg
Mean anomaly:     226.4833 deg
Mean motion:   14.98098395 rev/day
Decay rate:    2.3309E-005 rev/day^2
Epoch rev:           51260
Checksum:              332

Satellite: EUTELSAT 2-F1
Catalog number: 20777
Epoch time:      103115.60951340
Element set:     60 
Inclination:        3.6617 deg
RA of node:        83.8841 deg
Eccentricity:    0.0005744
Arg of perigee:   340.6245 deg
Mean anomaly:      84.1014 deg
Mean motion:    1.00271720 rev/day
Decay rate:   -1.0899E-006 rev/day^2
Epoch rev:            2676
Checksum:              273

Satellite: FENGYUN 1B
Catalog number: 20788
Epoch time:      103115.89689012
Element set:     936 
Inclination:       99.0354 deg
RA of node:        97.4782 deg
Eccentricity:    0.0017249
Arg of perigee:    45.6467 deg
Mean anomaly:     314.6110 deg
Mean motion:   14.02150374 rev/day
Decay rate:   -1.7900E-006 rev/day^2
Epoch rev:           64683
Checksum:              321

Satellite: EUTELSAT 2-F2
Catalog number: 21056
Epoch time:      103112.94275634
Element set:     638 
Inclination:        2.8865 deg
RA of node:        87.2607 deg
Eccentricity:    0.0005507
Arg of perigee:   325.4954 deg
Mean anomaly:     185.6543 deg
Mean motion:    1.00270095 rev/day
Decay rate:    1.0700E-006 rev/day^2
Epoch rev:            3251
Checksum:              282

Satellite: INFORMATOR 1
Catalog number: 21087
Epoch time:      103114.90799753
Element set:     640 
Inclination:       82.9384 deg
RA of node:       269.0020 deg
Eccentricity:    0.0037002
Arg of perigee:    68.3444 deg
Mean anomaly:     292.1645 deg
Mean motion:   13.74933200 rev/day
Decay rate:    4.7000E-007 rev/day^2
Epoch rev:           61386
Checksum:              390

Satellite: COSMOS 2123
Catalog number: 21089
Epoch time:      103114.55083539
Element set:     507 
Inclination:       82.9212 deg
RA of node:       133.1744 deg
Eccentricity:    0.0030814
Arg of perigee:   103.6662 deg
Mean anomaly:     256.7921 deg
Mean motion:   13.74411402 rev/day
Decay rate:    7.7999E-007 rev/day^2
Epoch rev:           61271
Checksum:              306

